K5KVN-2 Weather Reports


Display with metric or nautical units.
time (UTC)temp
F
wind
direction
speed
MPH
gust
MPH
rain 1hr
in
rain 24hr
in
rain mn
in
humidity
%
barometer
mb
20260905095900 76 151 0.0 1.0 0.00 0.00 0.00 80 1015.4
20260905095332 76 151 0.0 1.0 0.00 0.00 0.00 80 1015.4
20260905093858 76 151 0.0 1.0 0.00 0.00 0.00 79 1015.3
20260905092857 76 151 0.0 0.0 0.00 0.00 0.00 79 1015.4
20260905091856 76 151 0.0 1.0 0.00 0.00 0.00 79 1015.2
20260905090857 76 151 0.0 0.0 0.00 0.00 0.00 78 1015.3
20260905085856 76 151 0.0 0.0 0.00 0.00 0.00 78 1015.3
20260905084857 76 151 0.0 0.0 0.00 0.00 0.00 78 1015.3
20260905083857 76 151 0.0 0.0 0.00 0.00 0.00 77 1015.1
20260905082857 77 151 0.0 0.0 0.00 0.00 0.00 76 1015.1
20260905081858 77 151 0.0 0.0 0.00 0.00 0.00 75 1015.3
20260905080857 77 151 0.0 0.0 0.00 0.00 0.00 75 1015.1
20260905075858 78 151 0.0 0.0 0.00 0.00 0.00 74 1015.2
20260905074856 79 151 0.0 1.0 0.00 0.00 0.00 72 1015.2
20260905073858 80 151 0.0 1.0 0.00 0.00 0.00 68 1015.2
20260905072857 81 151 0.0 0.0 0.00 0.00 0.00 68 1015.2
20260905071859 82 151 0.0 0.0 0.00 0.00 0.00 66 1015.4
20260905070858 82 151 0.0 0.0 0.00 0.00 0.00 65 1015.4
20260905065858 83 151 0.0 1.0 0.00 0.00 0.00 64 1015.5
20260905064855 83 151 1.0 4.0 0.00 0.00 0.00 64 1015.5
20260905063850 83 156 2.0 5.0 0.00 0.00 0.00 64 1015.6
20260905062852 83 158 2.0 3.0 0.00 0.00 0.00 65 1015.5
20260905061852 83 141 2.0 3.0 0.00 0.00 0.00 64 1015.5
20260905060852 83 146 2.0 3.0 0.00 0.00 0.00 64 1015.6
20260905054850 84 136 1.0 2.0 0.00 0.00 0.00 62 1015.5
20260905054331 85 139 3.0 6.0 0.00 0.00 0.00 61 1015.5
20260905052851 85 130 3.0 4.0 0.00 0.00 0.00 61 1015.5
20260905051849 85 128 2.0 4.0 0.00 0.00 0.00 60 1015.5
20260905050846 85 144 2.0 4.0 0.00 0.00 0.00 60 1015.5
20260905050335 86 135 3.0 4.0 0.00 0.00 0.00 59 1015.5
20260905044845 86 128 2.0 6.0 0.00 0.00 0.00 58 1015.4
20260905043844 86 134 2.0 6.0 0.00 0.00 0.00 58 1015.5
20260905043330 86 145 3.0 6.0 0.00 0.00 0.00 57 1015.4
20260905041842 86 134 3.0 6.0 0.00 0.00 0.00 57 1015.4
20260905040840 87 123 3.0 6.0 0.00 0.00 0.00 56 1015.3
20260905035843 87 130 3.0 6.0 0.00 0.00 0.00 56 1015.2
20260905034836 87 126 3.0 6.0 0.00 0.00 0.00 55 1015.4
20260905033836 87 121 4.0 7.0 0.00 0.00 0.00 55 1015.3
20260905032835 88 131 4.0 8.0 0.00 0.00 0.00 54 1015.2
20260905031836 88 163 4.0 7.0 0.00 0.00 0.00 53 1015.2
20260905031310 88 139 4.0 7.0 0.00 0.00 0.00 53 1015.2
20260905025836 88 146 3.0 6.0 0.00 0.00 0.00 53 1015.1
20260905024836 89 132 3.0 6.0 0.00 0.00 0.00 52 1015.1
20260905023836 89 138 3.0 4.0 0.00 0.00 0.00 52 1014.8
20260905022835 89 121 3.0 6.0 0.00 0.00 0.00 51 1014.7
20260905021832 89 123 3.0 6.0 0.00 0.00 0.00 51 1014.6
20260905021317 89 138 3.0 6.0 0.00 0.00 0.00 50 1014.3
20260905015830 89 139 3.0 5.0 0.00 0.00 0.00 50 1014.3
20260905015306 90 148 3.0 9.0 0.00 0.00 0.00 49 1014.1
20260905013830 90 144 2.0 3.0 0.00 0.00 0.00 48 1014.0
20260905013310 91 140 2.0 3.0 0.00 0.00 0.00 47 1013.9
20260905012313 91 132 2.0 3.0 0.00 0.00 0.00 47 1013.7
20260905010829 92 150 2.0 5.0 0.00 0.00 0.00 46 1013.6
20260905005830 92 140 3.0 5.0 0.00 0.00 0.00 45 1013.6
20260905004832 92 154 3.0 5.0 0.00 0.00 0.00 45 1013.6
20260905003829 93 140 3.0 5.0 0.00 0.00 0.00 44 1013.5
20260905003314 94 140 3.0 4.0 0.00 0.00 0.00 42 1013.5
20260905001831 94 138 4.0 6.0 0.00 0.00 0.00 41 1013.4
20260905000830 95 141 4.0 8.0 0.00 0.00 0.00 41 1013.4
20260904235829 95 123 4.0 8.0 0.00 0.00 0.00 41 1013.4
20260904234829 96 125 4.0 8.0 0.00 0.00 0.00 38 1013.5
20260904233830 96 136 4.0 7.0 0.00 0.00 0.00 38 1013.5
20260904232829 96 178 4.0 9.0 0.00 0.00 0.00 39 1013.4
20260904232307 96 95 4.0 8.0 0.00 0.00 0.00 39 1013.4
20260904230834 97 132 4.0 9.0 0.00 0.00 0.00 38 1013.5
20260904225831 97 83 3.0 7.0 0.00 0.00 0.00 37 1013.4
20260904224830 97 150 4.0 7.0 0.00 0.00 0.00 39 1013.5
20260904223828 97 99 6.0 12.0 0.00 0.00 0.00 39 1013.5
20260904222828 97 131 4.0 10.0 0.00 0.00 0.00 38 1013.6
20260904221828 98 128 3.0 9.0 0.00 0.00 0.00 39 1013.6
20260904221302 98 94 6.0 11.0 0.00 0.00 0.00 38 1013.8
20260904215829 99 107 5.0 11.0 0.00 0.00 0.00 37 1013.8
20260904214828 98 90 4.0 8.0 0.00 0.00 0.00 38 1013.9
20260904213829 98 164 4.0 11.0 0.00 0.00 0.00 36 1014.0
20260904212827 99 110 6.0 10.0 0.00 0.00 0.00 36 1014.1
20260904211827 100 190 3.0 8.0 0.00 0.00 0.00 35 1014.1
20260904210828 100 183 6.0 14.0 0.00 0.00 0.00 35 1014.2
20260904205822 99 172 5.0 12.0 0.00 0.00 0.00 35 1014.3
20260904204821 99 152 9.0 18.0 0.00 0.00 0.00 35 1014.4
20260904203823 99 261 6.0 15.0 0.00 0.00 0.00 34 1014.4
20260904201821 98 262 7.0 14.0 0.00 0.00 0.00 34 1014.7
20260904200824 97 155 3.0 8.0 0.00 0.00 0.00 37 1014.7
20260904195822 98 213 7.0 13.0 0.00 0.00 0.00 37 1014.9
20260904194823 99 173 6.0 14.0 0.00 0.00 0.00 36 1014.9
20260904193824 97 85 4.0 11.0 0.00 0.00 0.00 37 1014.8
20260904192823 98 180 4.0 10.0 0.00 0.00 0.00 37 1014.9
20260904191822 98 182 6.0 15.0 0.00 0.00 0.00 37 1015.2
20260904190823 98 117 6.0 15.0 0.00 0.00 0.00 37 1015.1
20260904185822 98 140 5.0 15.0 0.00 0.00 0.00 38 1015.3
20260904184822 97 237 6.0 12.0 0.00 0.00 0.00 38 1015.5
20260904183822 97 233 5.0 12.0 0.00 0.00 0.00 40 1015.5
20260904182823 96 169 5.0 16.0 0.00 0.00 0.00 40 1015.6
20260904181823 97 159 6.0 17.0 0.00 0.00 0.00 39 1015.9
20260904180820 96 232 8.0 15.0 0.00 0.00 0.00 41 1016.1
20260904175820 95 161 6.0 14.0 0.00 0.00 0.00 43 1016.2
20260904174820 95 187 7.0 14.0 0.00 0.00 0.00 43 1016.4
20260904172820 94 180 5.0 10.0 0.00 0.00 0.00 45 1016.6
20260904171818 94 165 6.0 14.0 0.00 0.00 0.00 44 1016.9
20260904171301 94 166 6.0 13.0 0.00 0.00 0.00 46 1016.8
20260904165817 93 209 5.0 12.0 0.00 0.00 0.00 48 1016.8
20260904164817 93 161 8.0 13.0 0.00 0.00 0.00 46 1016.9
20260904163816 92 174 7.0 17.0 0.00 0.00 0.00 47 1016.9
20260904162815 92 130 6.0 13.0 0.00 0.00 0.00 49 1016.9
20260904161816 92 220 7.0 12.0 0.00 0.00 0.00 52 1017.1
20260904160811 91 188 8.0 16.0 0.00 0.00 0.00 54 1017.0
20260904155812 90 163 7.0 12.0 0.00 0.00 0.00 54 1017.1
20260904154809 90 180 7.0 14.0 0.00 0.00 0.00 55 1017.1
20260904152809 88 203 7.0 14.0 0.00 0.00 0.00 58 1017.1
20260904151809 87 193 6.0 12.0 0.00 0.00 0.00 59 1017.1
20260904150809 87 168 3.0 9.0 0.00 0.00 0.00 61 1017.0
20260904145811 86 178 3.0 7.0 0.00 0.00 0.00 64 1017.2
20260904145306 85 150 3.0 8.0 0.00 0.00 0.00 66 1017.0
20260904143809 84 190 2.0 6.0 0.00 0.00 0.00 68 1017.1
20260904142807 83 55 1.0 5.0 0.00 0.00 0.00 69 1017.1
20260904141808 82 146 1.0 3.0 0.00 0.00 0.00 70 1017.1
20260904140805 82 196 2.0 5.0 0.00 0.00 0.00 71 1017.1
20260904135802 81 128 1.0 4.0 0.00 0.00 0.00 71 1017.2
20260904134803 80 109 1.0 2.0 0.00 0.00 0.00 73 1017.1
20260904133805 79 132 0.0 0.0 0.00 0.00 0.00 74 1017.1
20260904132802 78 67 0.0 0.0 0.00 0.00 0.00 77 1017.0
20260904131803 77 84 0.0 0.0 0.00 0.00 0.00 80 1017.0
20260904131250 76 142 0.0 0.0 0.00 0.00 0.00 81 1016.9
20260904130243 76 142 0.0 1.0 0.00 0.00 0.00 81 1016.8
20260904125247 75 47 0.0 2.0 0.00 0.00 0.00 82 1016.7
20260904123802 74 57 0.0 1.0 0.00 0.00 0.00 83 1016.7
20260904123240 73 36 0.0 0.0 0.00 0.00 0.00 84 1016.6
20260904121803 73 36 0.0 1.0 0.00 0.00 0.00 85 1016.5
20260904120802 72 0 0.0 0.0 0.00 0.00 0.00 86 1016.4
20260904115759 72 0 0.0 0.0 0.00 0.00 0.00 85 1016.4
20260904114800 72 0 0.0 0.0 0.00 0.00 0.00 85 1016.4
20260904113758 72 0 0.0 0.0 0.00 0.00 0.00 84 1016.3
20260904113233 72 0 0.0 0.0 0.00 0.00 0.00 84 1016.3
20260904111759 73 0 1.0 3.0 0.00 0.00 0.00 82 1016.3
20260904110759 74 340 1.0 4.0 0.00 0.00 0.00 80 1016.3
20260904105759 75 133 0.0 0.0 0.00 0.00 0.00 78 1016.2
20260904104800 76 133 0.0 0.0 0.00 0.00 0.00 76 1016.1
20260904102756 76 133 1.0 2.0 0.00 0.00 0.00 76 1016.0
20260904101759 76 159 1.0 2.0 0.00 0.00 0.00 76 1015.9
20260904100757 76 159 2.0 3.0 0.00 0.00 0.00 76 1015.7